Location: Knowlton
(51.2333°N, 1.2667°E)
Time: 04:06:43
(UTC+00:00)

NOSS 3-4 (C) - Pass Details

Date: 18 April 2021
Orbit: 873 x 1339 km, 63.4° (Epoch: 27 April)

Event Time Altitude Azimuth Distance (km) Brightness Sun altitude
Rises 19:47:05 0° 224° (SW) 3,463 6.6 -8.1°
Reaches altitude 10° 19:49:30 10° 225° (SW) 2,546 5.9 -8.4°
Maximum altitude 19:55:23 86° 314° (NW) 938 3.5 -9.2°
Drops below altitude 10° 20:01:50 10° 45° (NE) 2,775 5.8 -10.0°
Sets 20:04:34 0° 46° (NE) 3,796 6.5 -10.4°
